Location: Albany
(35.0000°S, 118.0000°E)
Time: 00:57:09
(UTC-05:00)

Amateur Radio Satellites - All Passes

Search period start: 06 March 2015 00:27
Search period end: 07 March 2015 00:27
Location: Albany, 35.0000°S, 118.0000°E

Satellite Date Start Highest point End Downlink Frequencies (MHz)
Time Altitude Azimuth
ITUPSAT 1 06 Mar 00:46:43 00:51:00 30° 276° (W) 00:55:14 437.325
BEESAT 3 06 Mar 00:51:22 00:55:19 63° 297° (WNW) 00:59:15 437.485
JUGNU 06 Mar 01:02:31 01:06:26 18° 1° (N) 01:10:20 437.505
Gurwin Techsat 1B 06 Mar 01:03:21 01:08:07 33° 84° (E) 01:12:55 435.225
Oscar 19 06 Mar 01:03:54 01:09:04 57° 253° (WSW) 01:14:09 437.125/150
STARS 06 Mar 01:05:45 01:10:01 50° 106° (ESE) 01:14:23 437.465
KKS-1 06 Mar 01:07:27 01:11:55 85° 103° (ESE) 01:16:28 437.445
ITAMSAT 1 06 Mar 01:10:06 01:15:13 51° 80° (E) 01:20:18 435.822/435.867
SRMSAT 06 Mar 01:11:31 01:14:46 15° 9° (N) 01:18:03 437.500
BEESAT 2 06 Mar 01:21:13 01:24:49 33° 294° (WNW) 01:28:25 435.950
AO-7 06 Mar 01:29:43 01:30:45 10° 94° (E) 01:32:42 29.400- 29.500
HORYU 2 06 Mar 01:32:03 01:34:06 13° 89° (E) 01:36:24 437.375
RS-15 06 Mar 01:33:47 01:40:46 16° 197° (SSW) 01:47:16 29.354- 29.394
AIST 2 06 Mar 01:38:13 01:42:18 65° 297° (WNW) 01:46:23 435.215
YUBILEINY 06 Mar 01:43:28 01:52:04 58° 101° (E) 02:00:38 435.215
AUBIESAT-1 06 Mar 02:22:29 02:27:04 45° 110° (ESE) 02:31:35 437.475
M-CUBED/EXP-1 PRIME 06 Mar 02:23:29 02:28:12 52° 110° (ESE) 02:32:51 437.505
Gurwin Techsat 1B 06 Mar 02:43:29 02:48:00 27° 249° (WSW) 02:52:23 435.225
MOZHAYETS 4 06 Mar 02:44:53 02:49:17 42° 107° (ESE) 02:53:44
STARS 06 Mar 02:44:58 02:46:52 12° 270° (W) 02:48:31 437.465
ITAMSAT 1 06 Mar 02:50:52 02:54:21 18° 246° (WSW) 02:57:37 435.822/435.867
JUGNU 06 Mar 02:51:26 02:54:46 15° 351° (N) 02:58:01 437.505
SRMSAT 06 Mar 02:59:19 03:03:14 18° 359° (N) 03:07:09 437.500
HORYU 2 06 Mar 03:06:43 03:11:07 47° 254° (WSW) 03:15:25 437.375
JAS-2 06 Mar 03:13:50 03:18:59 45° 82° (E) 03:23:58 435.910
AO-7 06 Mar 03:16:40 03:25:08 73° 75° (ENE) 03:33:30 29.400- 29.500
PCSat 06 Mar 03:20:42 03:25:02 24° 128° (SE) 03:29:27 145.827
YUBILEINY 06 Mar 03:41:24 03:48:24 26° 265° (W) 03:55:01 435.215
RS-15 06 Mar 03:53:36 04:00:17 16° 161° (SSE) 04:07:10 29.354- 29.394
AUBIESAT-1 06 Mar 03:58:45 04:02:04 18° 277° (W) 04:05:09 437.475
M-CUBED/EXP-1 PRIME 06 Mar 04:00:22 04:03:21 15° 276° (W) 04:06:04 437.505
PRISM 06 Mar 04:05:50 04:08:59 21° 110° (ESE) 04:12:16 437.425
MOZHAYETS 4 06 Mar 04:23:47 04:26:45 16° 271° (W) 04:29:31
SRMSAT 06 Mar 04:48:41 04:51:43 14° 350° (N) 04:54:40 437.500
STRAND 1 06 Mar 04:51:39 04:56:29 44° 108° (ESE) 05:01:24 437.568
CUBESAT XI-V 06 Mar 04:54:03 04:58:42 77° 103° (ESE) 05:03:22 437.345
JAS-2 06 Mar 05:00:08 05:03:47 18° 245° (WSW) 05:07:07 435.910
PCSat 06 Mar 05:03:32 05:08:39 42° 291° (WNW) 05:13:43 145.827
Cubesat XI-IV 06 Mar 05:05:25 05:10:37 49° 81° (E) 05:15:49 437.490
AO-7 06 Mar 05:10:51 05:17:14 24° 239° (WSW) 05:23:16 29.400- 29.500
CUTE-I 06 Mar 05:13:11 05:18:30 58° 80° (E) 05:23:48 437.470
PRISM 06 Mar 05:40:49 05:44:23 26° 276° (W) 05:47:55 437.425
ISS 06 Mar 05:44:16 05:47:24 41° 46° (NE) 05:50:36 145.825
AIST 1 06 Mar 05:47:43 05:52:03 82° 263° (W) 05:56:26
GONETS M04 06 Mar 05:59:06 06:03:11 14° 118° (ESE) 06:07:55
RS-15 06 Mar 06:05:45 06:16:59 48° 130° (SE) 06:27:46 29.354- 29.394
O/OREOS (USA 219) 06 Mar 06:14:11 06:15:34 12° 80° (E) 06:17:14 437.305
HO-68 06 Mar 06:23:42 06:26:03 12° 92° (E) 06:29:01 435.675
STRAND 1 06 Mar 06:32:23 06:35:57 18° 272° (W) 06:39:20 437.568
Cubesat XI-IV 06 Mar 06:46:35 06:50:23 19° 247° (WSW) 06:53:59 437.490
CUTE-I 06 Mar 06:54:47 06:58:09 16° 246° (WSW) 07:01:17 437.470
SEEDS 06 Mar 07:02:29 07:04:41 14° 89° (E) 07:07:05 437.485
CANX-2 06 Mar 07:10:52 07:14:22 24° 86° (E) 07:17:54 2200.000
ISS 06 Mar 07:21:28 07:24:00 19° 211° (SSW) 07:26:31 145.825
CINEMA 3 06 Mar 07:21:32 07:23:56 14° 91° (E) 07:26:36 145.822/145.860
GOMX 1 06 Mar 07:23:02 07:28:11 42° 83° (E) 07:33:25 467.674
CUTE 1.7 + AOD 2 06 Mar 07:28:31 07:32:29 35° 83° (E) 07:36:26 437.475
BRITE-PL 06 Mar 07:37:30 07:43:03 85° 80° (E) 07:48:47 437.365/2234.400
DOVE 4 06 Mar 07:39:44 07:44:48 42° 83° (E) 07:49:53 437.250
TIGRISAT 06 Mar 07:48:30 07:50:21 13° 114° (ESE) 07:52:29 435.000
DANDE 06 Mar 07:49:55 07:53:44 14° 120° (ESE) 07:58:09 436.750
O/OREOS (USA 219) 06 Mar 07:50:08 07:54:34 53° 247° (WSW) 07:59:01 437.305
GONETS M04 06 Mar 07:52:46 08:01:40 84° 97° (E) 08:10:25
CUSAT 1 06 Mar 07:56:15 08:01:32 19° 117° (ESE) 08:07:03 437.405
AAUSAT CUBESAT 2 06 Mar 07:57:42 08:01:47 46° 81° (E) 08:05:50 437.432
ANTELSAT 06 Mar 08:02:51 08:06:01 19° 112° (ESE) 08:09:24 437.575/2403.000
COMPASS 1 06 Mar 08:03:18 08:07:33 65° 80° (E) 08:11:42 437.405
UWE-3 06 Mar 08:06:43 08:09:51 18° 89° (E) 08:13:06 435.000/436.395/437.385
HO-68 06 Mar 08:07:36 08:14:52 88° 75° (ENE) 08:22:03 435.675
RS-15 06 Mar 08:18:34 08:29:28 47° 289° (WNW) 08:39:40 29.354- 29.394
Oscar 11 06 Mar 08:18:42 08:22:47 37° 83° (E) 08:26:50 145.826/435.025
SO-50 06 Mar 08:19:35 08:23:37 35° 126° (SE) 08:27:39 436.795
BUGSAT 1 06 Mar 08:25:28 08:25:50 10° 113° (ESE) 08:26:26 437.445
QB50P1 06 Mar 08:32:51 08:35:52 20° 110° (ESE) 08:39:01 145.935-145.965
SEEDS 06 Mar 08:36:43 08:40:45 39° 254° (WSW) 08:44:42 437.485
QB50P2 06 Mar 08:37:47 08:41:05 23° 110° (ESE) 08:44:31 145.880/145.840
DELFI C3 06 Mar 08:42:07 08:46:10 55° 80° (E) 08:50:09 145.870
CANX-2 06 Mar 08:46:43 08:50:14 24° 251° (WSW) 08:53:37 2200.000
HUMSAT D 06 Mar 08:47:10 08:50:16 19° 87° (E) 08:53:28 437.325/437.525
DUCHIFAT 1 06 Mar 08:48:57 08:52:35 29° 108° (ESE) 08:56:20 145.980
DX 1 06 Mar 08:49:42 08:53:48 36° 82° (E) 08:57:54 434.975-435.025
CUBEBUG 2 06 Mar 08:51:10 08:56:01 70° 79° (E) 09:00:44 437.445
CINEMA 3 06 Mar 08:56:31 09:01:34 58° 255° (WSW) 09:06:30 145.822/145.860
UNISAT 6 06 Mar 08:58:51 09:03:28 78° 103° (ESE) 09:08:13 437.425
GOMX 1 06 Mar 09:01:46 09:06:03 23° 250° (WSW) 09:10:14 467.674
CUTE 1.7 + AOD 2 06 Mar 09:05:19 09:08:10 17° 249° (WSW) 09:10:49 437.475
FUNcube-1 06 Mar 09:11:04 09:15:46 77° 78° (ENE) 09:20:18 145.935
AISAT 06 Mar 09:11:17 09:15:04 26° 85° (E) 09:18:53 437.250
POPSAT HIP 1 06 Mar 09:11:45 09:15:54 56° 105° (ESE) 09:20:08 437.405
POLYITAN 1 06 Mar 09:13:14 09:17:25 60° 105° (ESE) 09:21:43 437.675
ZACube-1 06 Mar 09:13:47 09:18:30 84° 78° (ENE) 09:23:03 437.345
UKube-1 06 Mar 09:14:00 09:18:24 69° 78° (ENE) 09:22:45 .
DOVE 4 06 Mar 09:18:12 09:22:17 22° 249° (WSW) 09:26:14 437.250
VELOX 1 06 Mar 09:18:46 09:22:44 30° 83° (E) 09:26:44 145.980
BRITE-PL 06 Mar 09:18:48 09:21:00 12° 246° (WSW) 09:22:52 437.365/2234.400
TIGRISAT 06 Mar 09:22:05 09:26:36 59° 280° (W) 09:31:17 435.000
DANDE 06 Mar 09:30:07 09:38:50 71° 101° (E) 09:46:59 436.750
NANOSAT C BR1 06 Mar 09:33:15 09:37:29 79° 282° (WNW) 09:41:48 145.865
AAUSAT CUBESAT 2 06 Mar 09:35:06 09:37:03 13° 248° (WSW) 09:38:48 437.432
50 SAT 06 Mar 09:37:05 09:41:08 51° 81° (E) 09:45:07 437.505
CUSAT 1 06 Mar 09:37:08 09:45:44 89° 282° (WNW) 09:53:28 437.405
ANTELSAT 06 Mar 09:38:15 09:42:33 37° 277° (W) 09:46:56 437.575/2403.000
UWE-3 06 Mar 09:42:08 09:46:34 39° 253° (WSW) 09:50:52 435.000/436.395/437.385
ESTCUBE 1 06 Mar 09:49:17 09:53:20 32° 83° (E) 09:57:23 437.505/2401.250
GONETS M04 06 Mar 09:52:19 09:57:32 16° 261° (W) 10:02:07
Oscar 11 06 Mar 09:55:49 09:58:42 17° 249° (WSW) 10:01:23 145.826/435.025
BUGSAT 1 06 Mar 09:56:55 10:00:53 54° 280° (W) 10:04:55 437.445
HO-68 06 Mar 09:57:33 10:01:47 16° 239° (WSW) 10:05:37 435.675
SO-50 06 Mar 10:00:45 10:03:55 19° 291° (WNW) 10:06:58 436.795
QB50P1 06 Mar 10:07:49 10:11:34 30° 276° (W) 10:15:20 145.935-145.965
QB50P2 06 Mar 10:13:19 10:16:55 25° 275° (W) 10:20:28 145.880/145.840
DELFI C3 06 Mar 10:20:31 10:20:55 10° 247° (WSW) 10:21:05 145.870
HUMSAT D 06 Mar 10:22:13 10:26:08 30° 252° (WSW) 10:29:54 437.325/437.525
DUCHIFAT 1 06 Mar 10:25:22 10:28:29 19° 273° (W) 10:31:32 145.980
DX 1 06 Mar 10:26:48 10:29:48 17° 248° (WSW) 10:32:38 434.975-435.025
CUBEBUG 2 06 Mar 10:30:32 10:32:09 11° 246° (WSW) 10:33:28 437.445
CUBEBUG 1 06 Mar 10:36:45 10:41:13 78° 256° (WSW) 10:45:39 437.445
Oscar 19 06 Mar 10:40:27 10:43:29 16° 114° (ESE) 10:46:45 437.125/150
TISAT 1 06 Mar 10:43:15 10:46:45 24° 85° (E) 10:50:19 437.305
AISAT 06 Mar 10:47:51 10:51:36 25° 250° (WSW) 10:55:15 437.250
SPROUT 06 Mar 10:53:19 10:57:24 37° 83° (E) 11:01:28 437.525
VELOX 1 06 Mar 10:55:40 10:59:09 21° 250° (WSW) 11:02:29 145.980
50 SAT 06 Mar 11:14:26 11:15:42 11° 247° (WSW) 11:16:44 437.505
DANDE 06 Mar 11:14:54 11:21:33 24° 265° (W) 11:27:32 436.750
CUSAT 1 06 Mar 11:22:33 11:27:36 17° 262° (W) 11:31:54 437.405
ESTCUBE 1 06 Mar 11:26:36 11:30:02 21° 249° (WSW) 11:33:19 437.505/2401.250
SWISSCUBE 06 Mar 12:12:26 12:16:54 38° 82° (E) 12:21:23 437.505
ISS 06 Mar 12:15:10 12:17:18 16° 152° (SSE) 12:19:29 145.825
Oscar 19 06 Mar 12:17:19 12:22:24 55° 280° (W) 12:27:35 437.125/150
TISAT 1 06 Mar 12:18:57 12:22:30 24° 251° (WSW) 12:25:56 437.305
BEESAT 06 Mar 12:20:13 12:24:48 43° 81° (E) 12:29:21 436.000
Gurwin Techsat 1B 06 Mar 12:21:09 12:26:00 38° 109° (ESE) 12:30:58 435.225
AO-7 06 Mar 12:24:40 12:28:20 14° 126° (SE) 12:32:32 29.400- 29.500
ITAMSAT 1 06 Mar 12:24:46 12:29:50 55° 106° (ESE) 12:34:58 435.822/435.867
SPROUT 06 Mar 12:30:19 12:33:14 17° 249° (WSW) 12:35:58 437.525
ITUPSAT 1 06 Mar 12:50:02 12:54:54 90° 79° (ENE) 12:59:42 437.325
YUBILEINY 06 Mar 12:51:39 12:52:46 11° 101° (E) 12:54:47 435.215
STARS 06 Mar 13:01:01 13:02:47 12° 90° (E) 13:04:50 437.465
KKS-1 06 Mar 13:02:49 13:06:16 22° 86° (E) 13:09:49 437.445
JAS-2 06 Mar 13:23:05 13:27:38 19° 114° (ESE) 13:32:16 435.910
VERMONT LUNAR 06 Mar 13:47:19 13:50:25 32° 31° (NNE) 13:53:33 437.305
ISS 06 Mar 13:50:44 13:54:03 60° 315° (NW) 13:57:18 145.825
SWISSCUBE 06 Mar 13:51:04 13:54:32 19° 248° (WSW) 13:57:50 437.505
BEESAT 06 Mar 13:59:07 14:02:20 18° 247° (WSW) 14:05:23 436.000
HORYU 2 06 Mar 14:01:21 14:05:53 79° 282° (WNW) 14:10:29 437.375
Gurwin Techsat 1B 06 Mar 14:01:52 14:06:07 23° 274° (W) 14:10:15 435.225
ITAMSAT 1 06 Mar 14:06:46 14:09:46 15° 271° (W) 14:12:30 435.822/435.867
AO-7 06 Mar 14:11:38 14:19:53 73° 109° (ESE) 14:28:17 29.400- 29.500
PHONESAT 2.4 06 Mar 14:21:11 14:24:17 28° 33° (NNE) 14:27:27 2401.200-2431.200
STARS 06 Mar 14:35:14 14:39:38 50° 254° (WSW) 14:43:58 437.465
KKS-1 06 Mar 14:38:57 14:42:57 30° 251° (WSW) 14:46:51 437.445
YUBILEINY 06 Mar 14:39:36 14:48:21 74° 86° (E) 14:57:09 435.215
BEESAT 3 06 Mar 14:42:00 14:45:51 51° 64° (ENE) 14:49:42 437.485
MOZHAYETS 4 06 Mar 14:45:19 14:47:17 13° 90° (E) 14:49:31
JAS-2 06 Mar 15:04:39 15:12:15 76° 282° (WNW) 15:19:08 435.910
BEESAT 2 06 Mar 15:12:09 15:16:08 81° 241° (WSW) 15:20:08 435.950
VERMONT LUNAR 06 Mar 15:24:51 15:28:13 52° 197° (SSW) 15:31:36 437.305
AIST 2 06 Mar 15:33:16 15:37:15 58° 63° (ENE) 15:41:16 435.215
AUBIESAT-1 06 Mar 15:42:45 15:46:22 50° 76° (ENE) 15:49:43 437.475
M-CUBED/EXP-1 PRIME 06 Mar 15:44:23 15:48:07 63° 75° (ENE) 15:51:33 437.505
PHONESAT 2.4 06 Mar 15:59:03 16:02:36 60° 199° (SSW) 16:06:11 2401.200-2431.200
AIST 1 06 Mar 15:59:28 16:02:20 18° 107° (ESE) 16:05:20
AO-7 06 Mar 16:07:29 16:13:31 21° 272° (W) 16:19:08 29.400- 29.500
MOZHAYETS 4 06 Mar 16:20:24 16:24:54 50° 254° (WSW) 16:29:19
BEESAT 3 06 Mar 16:22:19 16:24:16 13° 227° (SW) 16:26:03 437.485
Cubesat XI-IV 06 Mar 16:24:08 16:29:21 58° 106° (ESE) 16:34:40 437.490
O/OREOS (USA 219) 06 Mar 16:25:35 16:28:03 15° 123° (ESE) 16:30:41 437.305
CUTE-I 06 Mar 16:31:44 16:37:01 68° 105° (ESE) 16:42:23 437.470
YUBILEINY 06 Mar 16:39:46 16:46:11 21° 246° (WSW) 16:52:10 435.215
CUBESAT XI-V 06 Mar 16:54:47 16:58:35 25° 86° (E) 17:02:28 437.345
JAS-2 06 Mar 16:56:47 16:58:12 10° 267° (W) 16:58:52 435.910
VERMONT LUNAR 06 Mar 17:03:22 17:06:29 31° 180° (S) 17:09:36 437.305
STRAND 1 06 Mar 17:06:23 17:10:01 20° 87° (E) 17:13:49 437.568
AIST 2 06 Mar 17:14:26 17:16:15 12° 226° (SW) 17:17:55 435.215
PRISM 06 Mar 17:26:07 17:30:13 54° 79° (E) 17:34:15 437.425
AIST 1 06 Mar 17:36:15 17:40:05 30° 271° (W) 17:43:52
PHONESAT 2.4 06 Mar 17:38:07 17:41:24 32° 182° (S) 17:44:43 2401.200-2431.200
PCSat 06 Mar 17:58:39 18:03:37 40° 69° (ENE) 18:08:42 145.827
CANX-2 06 Mar 18:02:19 18:04:11 13° 112° (ESE) 18:06:16 2200.000
O/OREOS (USA 219) 06 Mar 18:03:26 18:07:48 47° 286° (WNW) 18:12:08 437.305
Cubesat XI-IV 06 Mar 18:06:53 18:09:56 15° 270° (W) 18:12:42 437.490
CUTE-I 06 Mar 18:15:27 18:17:43 12° 269° (W) 18:19:37 437.470
CUTE 1.7 + AOD 2 06 Mar 18:19:06 18:22:01 18° 110° (ESE) 18:25:06 437.475
GOMX 1 06 Mar 18:28:58 18:32:34 26° 110° (ESE) 18:36:27 467.674
CUBESAT XI-V 06 Mar 18:32:01 18:36:01 27° 251° (WSW) 18:39:54 437.345
HO-68 06 Mar 18:32:19 18:39:06 48° 111° (ESE) 18:46:01 435.675
VERMONT LUNAR 06 Mar 18:41:22 18:44:46 52° 163° (SSE) 18:48:08 437.305
DOVE 4 06 Mar 18:43:00 18:46:37 26° 110° (ESE) 18:50:32 437.250
STRAND 1 06 Mar 18:44:34 18:49:25 41° 252° (WSW) 18:54:13 437.568
BRITE-PL 06 Mar 18:45:52 18:50:03 64° 104° (ESE) 18:54:34 437.365/2234.400
AAUSAT CUBESAT 2 06 Mar 18:46:06 18:49:20 22° 109° (ESE) 18:52:41 437.432
COMPASS 1 06 Mar 18:51:43 18:55:23 29° 108° (ESE) 18:59:10 437.405
GONETS M04 06 Mar 18:56:27 19:01:47 19° 98° (E) 19:07:42
UWE-3 06 Mar 19:03:44 19:03:55 10° 115° (ESE) 19:04:25 435.000/436.395/437.385
PRISM 06 Mar 19:04:12 19:05:17 11° 247° (WSW) 19:06:07 437.425
Oscar 11 06 Mar 19:10:59 19:14:09 20° 110° (ESE) 19:17:29 145.826/435.025
PHONESAT 2.4 06 Mar 19:16:45 19:20:16 49° 165° (SSE) 19:23:47 2401.200-2431.200
SEEDS 06 Mar 19:24:59 19:29:18 88° 284° (WNW) 19:33:41 437.485
DELFI C3 06 Mar 19:27:25 19:30:39 23° 109° (ESE) 19:33:58 145.870
CANX-2 06 Mar 19:35:31 19:39:44 49° 279° (W) 19:44:00 2200.000
PCSat 06 Mar 19:42:42 19:47:12 25° 233° (SW) 19:51:37 145.827
DX 1 06 Mar 19:42:49 19:46:06 22° 110° (ESE) 19:49:31 434.975-435.025
CUBEBUG 2 06 Mar 19:46:16 19:50:22 38° 107° (ESE) 19:54:43 437.445
CUTE 1.7 + AOD 2 06 Mar 19:53:48 19:57:44 33° 276° (W) 20:01:41 437.475
CINEMA 3 06 Mar 19:54:49 19:59:16 89° 108° (ESE) 20:04:01 145.822/145.860
FUNcube-1 06 Mar 20:03:38 20:07:44 39° 107° (ESE) 20:12:01 145.935
UKube-1 06 Mar 20:05:51 20:09:50 37° 107° (ESE) 20:13:56 .
ZACube-1 06 Mar 20:06:29 20:10:40 43° 107° (ESE) 20:15:00 437.345
AISAT 06 Mar 20:07:12 20:09:54 17° 112° (ESE) 20:12:47 437.250
GOMX 1 06 Mar 20:07:14 20:10:44 23° 273° (W) 20:14:18 467.674
VELOX 1 06 Mar 20:14:10 20:17:13 19° 111° (ESE) 20:20:27 145.980
VERMONT LUNAR 06 Mar 20:19:24 20:22:34 33° 329° (NNW) 20:25:42 437.305
DOVE 4 06 Mar 20:20:47 20:24:24 24° 273° (W) 20:28:06 437.250
HO-68 06 Mar 20:20:54 20:27:03 29° 275° (W) 20:33:04 435.675
50 SAT 06 Mar 20:21:10 20:24:11 21° 110° (ESE) 20:27:20 437.505
AAUSAT CUBESAT 2 06 Mar 20:21:13 20:24:51 26° 275° (W) 20:28:28 437.432
RS-15 06 Mar 20:24:02 20:34:55 42° 72° (ENE) 20:46:07 29.354- 29.394
COMPASS 1 06 Mar 20:27:57 20:31:09 20° 273° (W) 20:34:15 437.405
UWE-3 06 Mar 20:35:28 20:39:53 70° 281° (W) 20:44:30 435.000/436.395/437.385
Oscar 11 06 Mar 20:46:16 20:50:10 30° 276° (W) 20:54:04 145.826/435.025
ESTCUBE 1 06 Mar 20:46:27 20:49:46 21° 110° (ESE) 20:53:14 437.505/2401.250
GONETS M04 06 Mar 20:48:55 20:57:47 78° 262° (W) 21:06:45
PHONESAT 2.4 06 Mar 20:55:17 20:58:42 40° 330° (NNW) 21:02:05 2401.200-2431.200
UNISAT 6 06 Mar 20:55:20 20:58:55 22° 87° (E) 21:02:34 437.425
DELFI C3 06 Mar 21:02:24 21:05:46 23° 275° (W) 21:09:06 145.870
POPSAT HIP 1 06 Mar 21:02:29 21:04:11 12° 90° (E) 21:06:09 437.405
CUSAT 1 06 Mar 21:03:01 21:05:04 13° 100° (E) 21:07:44 437.405
POLYITAN 1 06 Mar 21:04:01 21:06:03 13° 89° (E) 21:08:19 437.675
HUMSAT D 06 Mar 21:10:10 21:14:25 66° 281° (W) 21:18:47 437.325/437.525
TIGRISAT 06 Mar 21:17:35 21:21:58 38° 83° (E) 21:26:16 435.000
DX 1 06 Mar 21:18:27 21:22:14 28° 276° (W) 21:25:59 434.975-435.025
NANOSAT C BR1 06 Mar 21:22:27 21:25:49 22° 86° (E) 21:29:13 145.865
CUBEBUG 2 06 Mar 21:24:21 21:27:19 17° 271° (W) 21:30:10 437.445
CUBEBUG 1 06 Mar 21:29:38 21:33:53 57° 105° (ESE) 21:38:13 437.445
ANTELSAT 06 Mar 21:33:32 21:38:13 60° 80° (E) 21:42:45 437.575/2403.000
TISAT 1 06 Mar 21:34:13 21:35:59 13° 113° (ESE) 21:37:58 437.305
FUNcube-1 06 Mar 21:41:31 21:44:20 16° 271° (W) 21:46:59 145.935
AISAT 06 Mar 21:42:04 21:46:13 39° 278° (W) 21:50:25 437.250
BUGSAT 1 06 Mar 21:42:48 21:46:25 27° 84° (E) 21:50:05 437.445
UKube-1 06 Mar 21:43:28 21:46:12 16° 272° (W) 21:48:45 .
ZACube-1 06 Mar 21:44:47 21:47:20 14° 270° (W) 21:49:41 437.345
SPROUT 06 Mar 21:45:12 21:48:14 20° 110° (ESE) 21:51:26 437.525
VELOX 1 06 Mar 21:49:35 21:53:36 33° 277° (W) 21:57:38 145.980
50 SAT 06 Mar 21:55:35 21:59:03 26° 275° (W) 22:02:29 437.505
QB50P1 06 Mar 21:55:49 22:00:07 56° 80° (E) 22:04:22 145.935-145.965
QB50P2 06 Mar 22:01:16 22:05:38 67° 79° (E) 22:09:57 145.880/145.840
DUCHIFAT 1 06 Mar 22:12:14 22:16:37 87° 78° (ENE) 22:20:57 145.980
ESTCUBE 1 06 Mar 22:22:25 22:26:29 31° 277° (W) 22:30:32 437.505/2401.250
SO-50 06 Mar 22:31:19 22:35:09 25° 67° (ENE) 22:39:01 436.795
UNISAT 6 06 Mar 22:31:35 22:35:46 31° 251° (WSW) 22:39:47 437.425
RS-15 06 Mar 22:35:11 22:47:15 56° 233° (SW) 22:59:11 29.354- 29.394
POPSAT HIP 1 06 Mar 22:36:11 22:40:25 47° 254° (WSW) 22:44:35 437.405
POLYITAN 1 06 Mar 22:38:04 22:42:16 44° 254° (WSW) 22:46:24 437.675
DANDE 06 Mar 22:39:13 22:43:45 88° 264° (W) 22:50:05 436.750
CUSAT 1 06 Mar 22:41:58 22:46:46 65° 258° (WSW) 22:53:18 437.405
GONETS M04 06 Mar 22:52:23 22:56:28 13° 240° (WSW) 22:59:49
TIGRISAT 06 Mar 22:55:06 22:58:27 19° 248° (WSW) 23:01:34 435.000
NANOSAT C BR1 06 Mar 22:57:57 23:01:39 27° 251° (WSW) 23:05:17 145.865
JUGNU 06 Mar 22:59:57 23:03:07 15° 10° (N) 23:06:20 437.505
BEESAT 3 06 Mar 23:05:34 23:07:22 13° 133° (SE) 23:09:20 437.485
TISAT 1 06 Mar 23:07:21 23:11:25 47° 279° (W) 23:15:33 437.305
CUBEBUG 1 06 Mar 23:10:14 23:10:44 10° 269° (W) 23:10:54 437.445
ANTELSAT 06 Mar 23:12:29 23:14:31 12° 246° (WSW) 23:16:16 437.575/2403.000
SWISSCUBE 06 Mar 23:16:03 23:20:13 31° 109° (ESE) 23:24:30 437.505
BUGSAT 1 06 Mar 23:18:30 23:21:46 21° 250° (WSW) 23:24:57 437.445
SPROUT 06 Mar 23:20:19 23:24:09 30° 276° (W) 23:27:59 437.525
BEESAT 06 Mar 23:23:39 23:27:58 34° 109° (ESE) 23:32:21 436.000
QB50P1 06 Mar 23:34:00 23:35:34 11° 247° (WSW) 23:36:53 145.935-145.965
BEESAT 2 06 Mar 23:35:16 23:38:24 22° 128° (SE) 23:41:36 435.950
ITUPSAT 1 06 Mar 23:53:28 23:58:15 72° 105° (ESE) 00:03:06 437.325
AIST 2 06 Mar 23:59:03 00:01:32 16° 131° (SE) 00:04:08 435.215
KKS-1 06 Mar 23:59:11 00:01:25 14° 113° (ESE) 00:03:53 437.445
SO-50 07 Mar 00:11:24 00:15:36 31° 233° (SW) 00:19:40 436.795
